Location: Newark
(39.5667°N, 8.9833°E)
Time: 08:22:26
(UTC+00:00)

Courier 1B - Visible Passes

Search period start: 20 October 2019 00:00
Search period end: 30 October 2019 00:00
Orbit: 962 x 1209 km, 28.3° (Epoch: 19 October)

Date Brightness Start Highest point End Pass type
(mag) Time Alt. Az. Time Alt. Az. Time Alt. Az.
20 Oct 8.9 17:54:25 10° SW 18:01:14 33° S 18:05:38 19° ESE visible
20 Oct 9.2 19:48:00 10° WSW 19:52:31 29° SW 19:52:31 29° SW visible
21 Oct 9.1 17:00:50 10° SW 17:07:28 30° SSE 17:14:03 10° ESE visible
21 Oct 8.7 18:54:05 10° WSW 19:01:05 36° S 19:02:03 35° SSE visible
21 Oct 10.2 20:48:25 10° WSW 20:48:57 12° WSW 20:48:57 12° WSW visible
22 Oct 8.8 18:00:17 10° WSW 18:07:17 36° S 18:11:36 21° SE visible
22 Oct 9.4 19:54:18 10° WSW 19:58:29 25° SW 19:58:29 25° SW visible
23 Oct 9.0 17:06:35 10° SW 17:13:29 35° S 17:20:24 10° ESE visible
23 Oct 8.8 19:00:18 10° WSW 19:07:08 33° S 19:08:03 32° S visible
24 Oct 8.9 18:06:23 10° WSW 18:13:20 35° S 18:17:37 21° SE visible
24 Oct 9.6 20:00:54 10° WSW 20:04:31 21° SW 20:04:31 21° SW visible
25 Oct 9.0 17:12:35 10° WSW 17:19:33 36° S 17:26:32 10° ESE visible
25 Oct 9.1 19:06:43 10° WSW 19:13:07 28° SSW 19:14:08 27° S visible
26 Oct 9.1 18:12:42 10° WSW 18:19:22 31° SSW 18:23:47 18° SE visible
26 Oct 10.0 20:08:06 10° WSW 20:10:41 15° SW 20:10:41 15° SW visible
27 Oct 9.1 17:18:47 10° WSW 17:25:35 34° S 17:32:27 10° SE visible
27 Oct 9.5 19:13:32 10° WSW 19:19:02 21° SSW 19:20:24 20° S visible
28 Oct 9.5 18:19:17 10° WSW 18:25:20 25° SSW 18:30:10 14° SSE visible
29 Oct 9.4 17:25:14 10° WSW 17:31:36 28° SSW 17:38:04 10° SE visible
29 Oct 10.0 19:21:17 10° SW 19:24:54 14° SSW 19:26:58 12° S visible
